This demonstration page uses our WeatherBlox Daily Observations layout. Learn more.

Left ArrowRight Arrow

39.29038, -76.61219

Hourly Observations for May 23, 2017

Temp ( °F °C ) Dew Point ( °F °C ) Humidity (%) Winds ( mph kmh ) Pressure ( in mb ) Visibility ( mi km ) Precip ( " mm )
12:54 am 00:54 undefined 64 17.8 62 16.7 93 93 undefined N/A 29.96 1015 N/A 0.00 0.00
1:54 am 01:54 undefined 63 17.2 62 16.7 97 97 undefined N/A 29.95 1014 N/A 0.00 0.00
2:54 am 02:54 undefined 63 17.2 62 16.7 97 97 undefined N/A 29.94 1014 N/A 0.00 0.00
3:54 am 03:54 undefined 63 17.2 61 16.1 93 93 undefined N/A 29.95 1014 N/A 0.00 0.00
4:54 am 04:54 undefined 63 17.2 58 14.4 84 84 undefined N/A 29.94 1014 N/A 0.00 0.00
5:54 am 05:54 undefined 63 17.2 55 12.8 76 76 undefined N/A 29.94 1014 N/A 0.00 0.00
6:54 am 06:54 undefined 63 17.2 53 11.7 70 70 undefined N/A 29.96 1014 N/A 0.00 0.00
7:54 am 07:54 undefined 63 17.2 55 12.8 76 76 undefined N/A 29.95 1014 N/A 0.00 0.00
8:54 am 08:54 undefined 64 17.8 55 12.8 73 73 undefined N/A 29.96 1014 N/A 0.00 0.00
9:54 am 09:54 undefined 64 17.8 55 12.8 73 73 undefined N/A 29.97 1015 N/A 0.00 0.00
10:54 am 10:54 undefined 65 18.3 54 12.2 68 68 undefined N/A 29.96 1015 N/A 0.00 0.00
11:54 am 11:54 undefined 65 18.3 54 12.2 68 68 undefined N/A 29.96 1014 N/A 0.00 0.00
12:54 pm 12:54 undefined 66 18.9 54 12.2 65 65 undefined N/A 29.93 1014 N/A 0.00 0.00
1:54 pm 13:54 undefined 66 18.9 56 13.3 70 70 undefined N/A 29.91 1013 N/A 0.00 0.00
2:54 pm 14:54 undefined 66 18.9 57 13.9 73 73 undefined N/A 29.90 1012 N/A 0.00 0.00
3:54 pm 15:54 undefined 67 19.4 59 15 76 76 undefined N/A 29.87 1011 N/A 0.00 0.00
4:54 pm 16:54 undefined 67 19.4 59 15 76 76 undefined N/A 29.84 1011 N/A 0.00 0.00
5:54 pm 17:54 undefined 67 19.4 59 15 76 76 undefined N/A 29.83 1010 N/A 0.00 0.00
6:54 pm 18:54 undefined 66 18.9 59 15 78 78 undefined N/A 29.82 1010 N/A 0.00 0.00
7:54 pm 19:54 undefined 65 18.3 60 15.6 84 84 undefined N/A 29.81 1010 N/A 0.00 0.00
8:54 pm 20:54 undefined 65 18.3 61 16.1 87 87 undefined N/A 29.81 1009 N/A 0.00 0.00
9:54 pm 21:54 undefined 64 17.8 61 16.1 90 90 undefined N/A 29.79 1009 N/A 0.00 0.00
10:54 pm 22:54 undefined 64 17.8 61 16.1 90 90 undefined N/A 29.77 1008 N/A 0.00 0.00
11:54 pm 23:54 undefined 63 17.2 58 14.4 84 84 undefined N/A 29.76 1008 N/A 0.00 0.00

Powered by AerisWeather